AUA2KR LSZH-LOWW

Flight info

Callsign AUA2KR
Flight time 0h 58m
Altitude 31000
Route DEGES Z2 XEBIX N871 BADVI L725 INPUL DCT NEMAL NEMAL2W
Aircraft A320/M-SDE3FGHIRWY/LB1

Departure

Time 2026-04-26 13:24
Airport Zürich Airport (LSZH)

Arrival

Time 2026-04-26 14:22
Airport Vienna International Airport (LOWW)
Time Latitude Longitude Altitude Speed Heading
2026-04-26 12:52 47.45434 8.55691 1413 ft 0 kts 186°
2026-04-26 12:53 47.45431 8.55747 1412 ft 0 kts 185°
2026-04-26 13:13 47.45442 8.55749 1413 ft 4 kts 182°
2026-04-26 13:13 47.45469 8.55748 1412 ft 4 kts 170°
2026-04-26 13:14 47.45494 8.55737 1411 ft 4 kts 148°
2026-04-26 13:14 47.45510 8.55711 1410 ft 3 kts 100°
2026-04-26 13:14 47.45511 8.55706 1409 ft 0 kts 95°
2026-04-26 13:16 47.45508 8.55753 1409 ft 12 kts 95°
2026-04-26 13:16 47.45497 8.55910 1407 ft 17 kts 96°
2026-04-26 13:17 47.45501 8.56256 1414 ft 16 kts 54°
2026-04-26 13:17 47.45559 8.56363 1413 ft 10 kts 51°
2026-04-26 13:18 47.45589 8.56567 1419 ft 10 kts 95°
2026-04-26 13:18 47.45581 8.56671 1418 ft 10 kts 96°
2026-04-26 13:18 47.45567 8.56871 1420 ft 7 kts 96°
2026-04-26 13:19 47.45563 8.56921 1420 ft 1 kts 96°
2026-04-26 13:19 47.45563 8.56923 1420 ft 0 kts 96°
2026-04-26 13:19 47.45562 8.56930 1420 ft 3 kts 96°
2026-04-26 13:19 47.45574 8.56993 1421 ft 7 kts 52°
2026-04-26 13:20 47.45605 8.57017 1424 ft 4 kts 18°
2026-04-26 13:20 47.45641 8.57022 1425 ft 7 kts 348°
2026-04-26 13:20 47.45665 8.56977 1424 ft 6 kts 283°
2026-04-26 13:20 47.45667 8.56947 1424 ft 0 kts 277°
2026-04-26 13:23 47.45667 8.56946 1424 ft 4 kts 277°
2026-04-26 13:23 47.45702 8.56468 1416 ft 88 kts 276°
2026-04-26 13:23 47.45788 8.55229 1399 ft 152 kts 276°
2026-04-26 13:23 47.45913 8.53526 1825 ft 167 kts 277°
2026-04-26 13:24 47.46026 8.51834 2678 ft 164 kts 279°
2026-04-26 13:24 47.46140 8.50056 3173 ft 184 kts 280°
2026-04-26 13:24 47.46178 8.48058 3523 ft 209 kts 259°
2026-04-26 13:24 47.45550 8.45997 3828 ft 230 kts 243°
2026-04-26 13:25 47.44770 8.43888 4419 ft 237 kts 241°
2026-04-26 13:25 47.43962 8.41764 5331 ft 236 kts 241°
2026-04-26 13:25 47.43170 8.39649 6203 ft 235 kts 240°
2026-04-26 13:25 47.42175 8.37758 6968 ft 235 kts 214°
2026-04-26 13:26 47.40661 8.36848 7596 ft 244 kts 187°
2026-04-26 13:26 47.38917 8.37127 7924 ft 267 kts 156°
2026-04-26 13:26 47.37444 8.38855 8476 ft 280 kts 124°
2026-04-26 13:26 47.36803 8.41528 9218 ft 287 kts 93°
2026-04-26 13:27 47.36893 8.44540 10070 ft 292 kts 85°
2026-04-26 13:27 47.37073 8.47555 10590 ft 309 kts 85°
2026-04-26 13:27 47.37288 8.50835 10852 ft 333 kts 84°
2026-04-26 13:27 47.37519 8.54336 11245 ft 349 kts 84°
2026-04-26 13:28 47.37750 8.57931 11919 ft 356 kts 85°
2026-04-26 13:28 47.37976 8.61598 12594 ft 361 kts 85°
2026-04-26 13:28 47.38197 8.65311 13321 ft 365 kts 85°
2026-04-26 13:28 47.38415 8.69068 14029 ft 370 kts 85°
2026-04-26 13:29 47.38634 8.72884 14626 ft 376 kts 85°
2026-04-26 13:29 47.38779 8.75432 15067 ft 377 kts 85°
2026-04-26 13:29 47.39075 8.80632 15909 ft 383 kts 84°
2026-04-26 13:29 47.39297 8.84573 16519 ft 387 kts 84°
2026-04-26 13:30 47.39520 8.88545 17159 ft 390 kts 84°
2026-04-26 13:30 47.39745 8.92555 17750 ft 394 kts 84°
2026-04-26 13:30 47.39973 8.96610 18362 ft 398 kts 84°
2026-04-26 13:30 47.40203 9.00698 18889 ft 402 kts 84°
2026-04-26 13:31 47.40430 9.04826 19396 ft 405 kts 84°
2026-04-26 13:31 47.40653 9.08987 19905 ft 408 kts 85°
2026-04-26 13:31 47.40873 9.13183 20413 ft 411 kts 85°
2026-04-26 13:31 47.41095 9.17412 20913 ft 414 kts 85°
2026-04-26 13:32 47.41461 9.21642 21403 ft 417 kts 77°
2026-04-26 13:32 47.42103 9.25834 21894 ft 420 kts 77°
2026-04-26 13:32 47.42752 9.30053 22390 ft 423 kts 77°
2026-04-26 13:32 47.43393 9.34250 22839 ft 427 kts 77°
2026-04-26 13:33 47.44046 9.38541 23270 ft 430 kts 77°
2026-04-26 13:33 47.44702 9.42865 23727 ft 433 kts 77°
2026-04-26 13:33 47.45360 9.47221 24062 ft 436 kts 77°
2026-04-26 13:33 47.46015 9.51605 24169 ft 437 kts 77°
2026-04-26 13:34 47.46665 9.55994 24193 ft 437 kts 78°
2026-04-26 13:34 47.47064 9.60451 24434 ft 440 kts 87°
2026-04-26 13:34 47.47004 9.64972 24839 ft 441 kts 95°
2026-04-26 13:34 47.46842 9.68039 25093 ft 443 kts 95°
2026-04-26 13:35 47.46521 9.74072 25581 ft 446 kts 95°
2026-04-26 13:35 47.46272 9.78651 25946 ft 449 kts 95°
2026-04-26 13:35 47.46016 9.83262 26306 ft 451 kts 95°
2026-04-26 13:35 47.45750 9.87956 26668 ft 454 kts 95°
2026-04-26 13:36 47.45489 9.92552 27029 ft 456 kts 95°
2026-04-26 13:36 47.45222 9.97232 27383 ft 459 kts 95°
2026-04-26 13:36 47.44951 10.01938 27738 ft 461 kts 95°
2026-04-26 13:36 47.44677 10.06674 28079 ft 464 kts 95°
2026-04-26 13:37 47.44401 10.11431 28407 ft 466 kts 95°
2026-04-26 13:37 47.44123 10.16214 28738 ft 468 kts 95°
2026-04-26 13:37 47.43653 10.20981 29033 ft 470 kts 102°
2026-04-26 13:37 47.43015 10.25733 29334 ft 473 kts 102°
2026-04-26 13:38 47.42372 10.30503 29649 ft 475 kts 102°
2026-04-26 13:38 47.41715 10.35358 29956 ft 477 kts 102°
2026-04-26 13:38 47.41079 10.40181 30224 ft 480 kts 99°
2026-04-26 13:38 47.40796 10.45037 30487 ft 482 kts 90°
2026-04-26 13:39 47.41009 10.49974 30775 ft 482 kts 81°
2026-04-26 13:39 47.41721 10.54796 31090 ft 481 kts 72°
2026-04-26 13:39 47.42821 10.59451 31186 ft 478 kts 69°
2026-04-26 13:40 47.45085 10.68633 31207 ft 470 kts 69°
2026-04-26 13:40 47.47277 10.77646 31195 ft 469 kts 69°
2026-04-26 13:41 47.49473 10.86720 31195 ft 469 kts 69°
2026-04-26 13:41 47.51667 10.95808 31184 ft 469 kts 69°
2026-04-26 13:42 47.53849 11.04893 31189 ft 469 kts 69°
2026-04-26 13:42 47.56035 11.13978 31179 ft 469 kts 69°
2026-04-26 13:43 47.58217 11.23083 31185 ft 469 kts 69°
2026-04-26 13:43 47.60387 11.32186 31183 ft 469 kts 69°
2026-04-26 13:44 47.62541 11.41303 31186 ft 468 kts 70°
2026-04-26 13:44 47.64495 11.50512 31183 ft 468 kts 72°
2026-04-26 13:45 47.66313 11.59792 31193 ft 468 kts 72°
2026-04-26 13:45 47.68153 11.69062 31188 ft 468 kts 72°
2026-04-26 13:46 47.70032 11.78312 31185 ft 468 kts 72°
2026-04-26 13:46 47.71863 11.87602 31195 ft 469 kts 73°
2026-04-26 13:47 47.73562 11.96933 31196 ft 468 kts 75°
2026-04-26 13:47 47.74934 12.06388 31195 ft 468 kts 78°
2026-04-26 13:48 47.76145 12.15897 31198 ft 468 kts 78°
2026-04-26 13:48 47.77397 12.25383 31197 ft 468 kts 77°
2026-04-26 13:49 47.78717 12.34854 31193 ft 468 kts 77°
2026-04-26 13:49 47.80039 12.44326 31194 ft 468 kts 77°
2026-04-26 13:50 47.81330 12.53804 31194 ft 468 kts 77°
2026-04-26 13:50 47.82605 12.63308 31188 ft 468 kts 77°
2026-04-26 13:51 47.83864 12.72821 31195 ft 468 kts 78°
2026-04-26 13:51 47.85002 12.82364 31211 ft 468 kts 79°
2026-04-26 13:52 47.85959 12.91962 31214 ft 468 kts 81°
2026-04-26 13:52 47.86734 12.99933 31215 ft 468 kts 80°
2026-04-26 13:53 47.87875 13.11128 31203 ft 468 kts 79°
2026-04-26 13:53 47.88878 13.20699 31210 ft 468 kts 80°
2026-04-26 13:54 47.89698 13.28664 31225 ft 467 kts 79°
2026-04-26 13:54 47.90663 13.38242 31216 ft 467 kts 80°
2026-04-26 13:55 47.91790 13.51015 31201 ft 468 kts 87°
2026-04-26 13:56 47.91730 13.67223 31206 ft 468 kts 89°
2026-04-26 13:56 47.91680 13.76920 31208 ft 468 kts 89°
2026-04-26 13:57 47.91620 13.86615 31201 ft 467 kts 89°
2026-04-26 13:57 47.91550 13.96301 31199 ft 467 kts 89°
2026-04-26 13:58 47.91480 14.05982 31194 ft 467 kts 89°
2026-04-26 13:58 47.91404 14.15657 31198 ft 467 kts 89°
2026-04-26 13:59 47.91311 14.25335 31191 ft 469 kts 89°
2026-04-26 13:59 47.91262 14.30200 30425 ft 469 kts 89°
2026-04-26 13:59 47.91210 14.35022 29485 ft 458 kts 89°
2026-04-26 14:00 47.91038 14.48965 27704 ft 427 kts 89°
2026-04-26 14:00 47.90990 14.53020 27182 ft 425 kts 89°
2026-04-26 14:00 47.90956 14.55929 26811 ft 423 kts 89°
2026-04-26 14:01 47.90884 14.61778 26052 ft 421 kts 89°
2026-04-26 14:01 47.90827 14.66125 25484 ft 419 kts 89°
2026-04-26 14:01 47.90768 14.70458 24938 ft 417 kts 89°
2026-04-26 14:01 47.90708 14.74773 24384 ft 415 kts 89°
2026-04-26 14:02 47.90646 14.79061 23863 ft 413 kts 89°
2026-04-26 14:02 47.90585 14.83327 23289 ft 411 kts 89°
2026-04-26 14:02 47.90523 14.87555 22816 ft 406 kts 89°
2026-04-26 14:02 47.90456 14.91736 22329 ft 401 kts 89°
2026-04-26 14:03 47.90387 14.95869 21878 ft 397 kts 89°
2026-04-26 14:03 47.90319 14.99965 21441 ft 393 kts 89°
2026-04-26 14:03 47.90251 15.04011 20994 ft 389 kts 89°
2026-04-26 14:03 47.90185 15.08025 20543 ft 385 kts 89°
2026-04-26 14:04 47.90119 15.12003 20092 ft 383 kts 89°
2026-04-26 14:04 47.90051 15.15953 19625 ft 381 kts 89°
2026-04-26 14:04 47.89981 15.19897 19165 ft 380 kts 89°
2026-04-26 14:04 47.89908 15.23828 18688 ft 379 kts 89°
2026-04-26 14:05 47.89831 15.27753 18168 ft 379 kts 89°
2026-04-26 14:05 47.89752 15.31674 17672 ft 377 kts 89°
2026-04-26 14:05 47.89675 15.35570 17185 ft 376 kts 89°
2026-04-26 14:05 47.89599 15.39478 16930 ft 381 kts 89°
2026-04-26 14:06 47.89524 15.43434 16689 ft 382 kts 88°
2026-04-26 14:06 47.89409 15.47392 16394 ft 383 kts 93°
2026-04-26 14:06 47.88912 15.51302 16177 ft 385 kts 101°
2026-04-26 14:06 47.88265 15.55172 15913 ft 384 kts 101°
2026-04-26 14:07 47.87619 15.59031 15648 ft 383 kts 101°
2026-04-26 14:07 47.86975 15.62879 15399 ft 383 kts 101°
2026-04-26 14:07 47.86332 15.66721 15137 ft 382 kts 101°
2026-04-26 14:07 47.85689 15.70553 14880 ft 381 kts 101°
2026-04-26 14:08 47.85046 15.74381 14622 ft 381 kts 102°
2026-04-26 14:08 47.84404 15.78198 14368 ft 380 kts 102°
2026-04-26 14:08 47.83759 15.82010 14046 ft 379 kts 102°
2026-04-26 14:08 47.83116 15.85803 13595 ft 378 kts 102°
2026-04-26 14:09 47.82475 15.89583 13376 ft 376 kts 102°
2026-04-26 14:09 47.81833 15.93353 13118 ft 375 kts 102°
2026-04-26 14:09 47.81194 15.97105 12862 ft 374 kts 102°
2026-04-26 14:09 47.80552 16.00853 12613 ft 374 kts 102°
2026-04-26 14:10 47.79909 16.04587 12358 ft 372 kts 102°
2026-04-26 14:10 47.79268 16.08303 12101 ft 370 kts 102°
2026-04-26 14:10 47.78630 16.12001 11855 ft 368 kts 102°
2026-04-26 14:10 47.78024 16.15690 11607 ft 366 kts 97°
2026-04-26 14:11 47.78229 16.23062 11122 ft 353 kts 70°
2026-04-26 14:11 47.79117 16.26413 10886 ft 345 kts 57°
2026-04-26 14:11 47.80432 16.29348 10644 ft 338 kts 45°
2026-04-26 14:12 47.82010 16.31904 10409 ft 335 kts 41°
2026-04-26 14:12 47.83596 16.34430 10171 ft 334 kts 41°
2026-04-26 14:12 47.85167 16.36936 9926 ft 326 kts 42°
2026-04-26 14:12 47.86678 16.39363 9780 ft 314 kts 42°
2026-04-26 14:13 47.88852 16.44827 9394 ft 308 kts 68°
2026-04-26 14:13 47.89399 16.47891 9153 ft 305 kts 76°
2026-04-26 14:13 47.89288 16.51050 8891 ft 310 kts 104°
2026-04-26 14:14 47.88227 16.53833 8632 ft 312 kts 134°
2026-04-26 14:14 47.86451 16.55595 8359 ft 306 kts 163°
2026-04-26 14:14 47.84481 16.56530 8040 ft 291 kts 161°
2026-04-26 14:14 47.82897 16.58368 7551 ft 289 kts 122°
2026-04-26 14:15 47.82313 16.61051 7422 ft 263 kts 84°
2026-04-26 14:15 47.82809 16.63457 7222 ft 234 kts 47°
2026-04-26 14:15 47.83810 16.65394 6656 ft 240 kts 45°
2026-04-26 14:15 47.84955 16.67158 6058 ft 234 kts 26°
2026-04-26 14:16 47.86412 16.68046 5457 ft 220 kts
2026-04-26 14:16 47.87867 16.67958 4969 ft 201 kts 342°
2026-04-26 14:16 47.89153 16.67421 4660 ft 183 kts 342°
2026-04-26 14:16 47.90329 16.66932 4430 ft 168 kts 342°
2026-04-26 14:17 47.91463 16.66455 4185 ft 171 kts 343°
2026-04-26 14:17 47.92616 16.65972 3947 ft 173 kts 343°
2026-04-26 14:17 47.93771 16.65487 3710 ft 172 kts 344°
2026-04-26 14:17 47.94932 16.65000 3477 ft 175 kts 344°
2026-04-26 14:18 47.96092 16.64513 3240 ft 169 kts 344°
2026-04-26 14:18 47.97173 16.64059 3024 ft 154 kts 344°
2026-04-26 14:18 47.98167 16.63641 2823 ft 143 kts 344°
2026-04-26 14:18 47.99119 16.63241 2628 ft 142 kts 344°
2026-04-26 14:19 48.00056 16.62847 2439 ft 139 kts 345°
2026-04-26 14:19 48.00983 16.62457 2252 ft 138 kts 345°
2026-04-26 14:19 48.01909 16.62064 2052 ft 140 kts 344°
2026-04-26 14:19 48.02847 16.61662 1858 ft 141 kts 345°
2026-04-26 14:20 48.03782 16.61265 1706 ft 138 kts 346°
2026-04-26 14:20 48.04700 16.60880 1488 ft 138 kts 346°
2026-04-26 14:20 48.05619 16.60492 1309 ft 135 kts 346°
2026-04-26 14:20 48.06514 16.60122 1121 ft 133 kts 346°
2026-04-26 14:21 48.07410 16.59750 935 ft 134 kts 346°
2026-04-26 14:21 48.08303 16.59364 772 ft 133 kts 347°
2026-04-26 14:21 48.09195 16.58992 631 ft 128 kts 347°
2026-04-26 14:21 48.09973 16.58670 620 ft 101 kts 345°
2026-04-26 14:22 48.10566 16.58418 612 ft 78 kts 344°
2026-04-26 14:22 48.10973 16.58241 618 ft 48 kts 345°
2026-04-26 14:22 48.11263 16.58121 617 ft 39 kts 344°
2026-04-26 14:22 48.11521 16.58013 609 ft 40 kts 344°
2026-04-26 14:23 48.11749 16.57913 623 ft 25 kts 343°
2026-04-26 14:23 48.11855 16.57776 615 ft 21 kts 289°
2026-04-26 14:23 48.11850 16.57626 609 ft 9 kts 255°
2026-04-26 14:23 48.11835 16.57542 609 ft 8 kts 255°
2026-04-26 14:24 48.11821 16.57468 611 ft 7 kts 253°
2026-04-26 14:24 48.11809 16.57402 609 ft 6 kts 257°
2026-04-26 14:24 48.11813 16.57346 613 ft 5 kts 293°
2026-04-26 14:24 48.11826 16.57303 616 ft 5 kts 294°
2026-04-26 14:25 48.11849 16.57230 618 ft 10 kts 295°
2026-04-26 14:25 48.11882 16.57124 612 ft 12 kts 295°
2026-04-26 14:25 48.11917 16.57022 617 ft 7 kts 297°
2026-04-26 14:25 48.11903 16.56974 612 ft 5 kts 216°
2026-04-26 14:26 48.11865 16.56946 609 ft 4 kts 206°
2026-04-26 14:26 48.11844 16.56931 619 ft 0 kts 206°